Location: La Brionne
(46.1728°N, 1.7849°E)
Time: 06:52:55
(UTC+00:00)

Cosmos 2322 Rocket - Pass Details

Date: 06 November 2021
Orbit: 832 x 852 km, 71.0° (Epoch: 06 December)

Event Time Altitude Azimuth Distance (km) Brightness Sun altitude
Rises 18:18:43 0° 278° (W) 3,382 6.9 -18.9°
Reaches altitude 10° 18:24:00 10° 320° (NW) 2,458 5.1 -19.8°
Maximum altitude 18:24:47 10° 328° (NNW) 2,440 5.0 -19.9°
Drops below altitude 10° 18:25:35 10° 336° (NNW) 2,461 4.9 -20.0°
Enters shadow 18:30:54 - 18° (NNE) 3,401 5.2 -21.0°
